Flag for U.S.A. Weather past 2 weeks in Harrisburg, Pennsylvania, U.S.A.

Now
64 °F

Partly sunny.


Feels Like: 64 °F
Forecast: 47 / 63 °F
Wind: 3 mph from North

Location: Capital City Airport

Current Time: Oct 21, 2014 at 4:09:24 PM

Latest Report: Oct 21, 2014 at 2:56 PM


Visibility: 10 mi

Pressure: 29.83 "Hg

Humidity: 58%

Dew point: 49 °F

Location of HarrisburgLocation

Historic Weather in Harrisburg — Graph

°F

Harrisburg temperature yesterday

Maximum temperature yesterday: 64 °F (at 2:56 PM)
Minimum temperature yesterday: 36 °F (at 7:56 AM)
Average temperature yesterday: 51 °F

Past Weeks' High & Low Weather Summary

 TemperatureHumidityPressure
High77 °F (Oct 14, 3:56 PM)100% (Oct 21, 7:56 AM)30.32 "Hg (Oct 21, 7:56 AM)
Low36 °F (Oct 20, 7:56 AM)31% (Oct 9, 2:56 PM)29.60 "Hg (Oct 18, 4:56 AM)
Average59 °F73%29.97 "Hg
* Reported Oct 6 2:56 PM — Oct 21 2:56 PM, Harrisburg, Weather by CustomWeather, © 2014

Note: Actual official high and low records may vary slightly from our data, if they occured in-between our weather recording intervals... More about our weather records

Advertising

Harrisburg weather history for previous 24 hours

 ConditionsComfort  
Time TempWeatherWind HumidityBarometerVisibility
2:56 PM
Oct 21
64 °FPartly sunny.3 mph58%29.83 "Hg10 mi
1:56 PM62 °FMore clouds than sun.5 mph62%29.84 "Hg10 mi
12:56 PM62 °FPartly sunny.No wind67%29.85 "Hg10 mi
11:56 AM58 °FPartly sunny.No wind78%29.88 "Hg10 mi
10:56 AM57 °FBroken clouds.No wind83%29.88 "Hg4 mi
9:56 AM54 °FFog.No wind90%29.88 "Hg2 mi
9:03 AM53 °FFog.No wind93%29.88 "Hg2 mi
8:56 AM52 °FFog.No wind97%29.88 "Hg2 mi
7:56 AM51 °FFog.No wind100%29.87 "Hg1 mi
7:04 AM51 °FFog.3 mph96%29.86 "Hg1 mi
6:56 AM51 °FFog.No wind96%29.86 "Hg1 mi
6:02 AM51 °FFog.No wind96%29.86 "Hg1 mi
5:56 AM51 °FFog.No wind96%29.86 "Hg2 mi
4:56 AM52 °FFog.No wind97%29.86 "Hg4 mi
3:56 AM53 °FFog.No wind93%29.87 "Hg6 mi
2:56 AM53 °FLight rain. Overcast.No wind93%29.89 "Hg10 mi
1:56 AM54 °FOvercast.3 mph86%29.89 "Hg10 mi
12:56 AM54 °FRain. Fog.7 mph86%29.91 "Hg5 mi
11:56 PM
Oct 20
56 °FMostly cloudy.3 mph70%29.92 "Hg10 mi
10:56 PM57 °FOvercast.9 mph67%29.92 "Hg10 mi
9:56 PM57 °FMostly cloudy.9 mph60%29.94 "Hg10 mi
8:56 PM56 °FLight rain. Overcast.No wind65%29.95 "Hg10 mi
7:56 PM57 °FOvercast.5 mph60%29.94 "Hg10 mi
6:56 PM58 °FBroken clouds.3 mph51%29.95 "Hg10 mi
5:56 PM60 °FSunny.7 mph49%29.95 "Hg10 mi
4:56 PM61 °FSunny.5 mph44%29.95 "Hg10 mi
Weather by CustomWeather, © 2014

See weather overviewHow to use our weather pages